This demonstration page uses our WeatherBlox Daily Observations layout. Learn more.

Left ArrowRight Arrow

41.55636, -103.73856

Hourly Observations for January 2, 2021

Temp ( °F °C ) Dew Point ( °F °C ) Humidity (%) Winds ( mph kmh ) Pressure ( in mb ) Visibility ( mi km ) Precip ( " mm )
12:58 am 00:58 Clear 25 -3.8 19 -7.2 78 78 SW 10 17 30.09 1019 10 16.0934 0 0
1:58 am 01:58 Clear 29 -1.6 20 -6.7 69 69 WSW 14 22 30.07 1018 10 16.0934 0 0
2:58 am 02:58 Clear 29 -1.9 19 -7 68 68 WSW 10 17 30.07 1018 10 16.0934 0 0
3:58 am 03:58 Clear 25 -4.1 18 -8 75 75 SW 7 11 30.06 1018 10 16.0934 0 0
4:58 am 04:58 Clear 24 -4.3 17 -8.1 75 75 SW 13 20 30.06 1018 10 16.0934 0 0
5:58 am 05:58 Clear 27 -3 17 -8.2 68 68 SW 13 20 30.05 1018 10 16.0934 0 0
6:58 am 06:58 Clear 25 -3.8 15 -9.4 65 65 SSW 12 19 30.05 1018 10 16.0934 0 0
7:58 am 07:58 Sunny 25 -3.9 10 -12 54 54 SW 5 7 30.04 1017 10 16.0934 0 0
8:58 am 08:58 Sunny 26 -3.3 14 -9.8 61 61 Calm 30.04 1017 10 16.0934 0 0
9:58 am 09:58 Sunny 31 -0.3 17 -8.4 55 55 Calm 29.99 1016 10 16.0934 0 0
10:58 am 10:58 Sunny 42 5.8 12 -10.9 29 29 WSW 15 24 29.93 1013 10 16.0934 0 0
11:58 am 11:58 Sunny 46 7.8 9 -12.7 22 22 W 17 28 29.87 1012 10 16.0934 0 0
12:58 pm 12:58 Sunny 47 8.4 9 -12.7 21 21 WNW 26 43 29.86 1011 10 16.0934 0 0
1:58 pm 13:58 Sunny 46 8 18 -8 32 32 WNW 31 50 29.85 1011 10 16.0934 0 0
2:58 pm 14:58 Sunny 45 7.4 18 -7.7 34 34 NW 29 46 29.86 1011 10 16.0934 0 0
3:58 pm 15:58 Sunny 41 5 19 -7.1 42 42 WNW 25 41 29.94 1014 10 16.0934 0 0
4:58 pm 16:58 Clear 36 2.4 20 -6.4 53 53 NW 17 28 29.97 1015 10 16.0934 0 0
5:58 pm 17:58 Clear 36 2 20 -6.6 53 53 WNW 20 31 29.98 1015 10 16.0934 0 0
6:58 pm 18:58 Mostly Cloudy 37 2.8 21 -6.2 52 52 NW 25 41 29.99 1016 10 16.0934 0 0
7:58 pm 19:58 Mostly Cloudy 36 2.4 21 -5.9 55 55 WNW 15 24 30 1016 10 16.0934 0 0
8:58 pm 20:58 Mostly Cloudy 37 2.8 21 -5.9 53 53 WNW 20 31 29.99 1016 10 16.0934 0 0
9:58 pm 21:58 Cloudy 37 2.7 19 -7 49 49 WNW 17 28 29.96 1014 10 16.0934 0 0
10:58 pm 22:58 Cloudy 36 2 19 -7.2 51 51 WNW 10 17 29.93 1014 10 16.0934 0 0
11:58 pm 23:58 Cloudy 35 1.5 18 -7.9 50 50 W 13 20 29.91 1013 10 16.0934 0 0

Powered by AerisWeather